カタログに戻る

STARLINK-31372

運用中通信VLEO
NORAD 58939·PAYLOAD·🇺🇸 United States

打ち上げ Feb 10, 2024 から Vandenberg Space Force Base

Loading…

次のパス (今後24時間)

TLE

最新Source: CelesTrak SupGP

元期: Sep 15, 2026, 03:04 UTC

1 58939C 24027J   26258.12826389  .00013761  00000+0  40663-3 0  2588
2 58939  53.1581 149.0200 0001300  89.3321 207.7792 15.34378490    14

AllMySatでSTARLINK-31372をリアルタイム追跡

Download on the App Store